,,,PA_Meas_PMT16A,,PR_Meas_QMR101_102,,RH_Meas_QMH101,,SR_Meas_QMS101,,TA_Meas_QMH101,,GenWind,,GenWind,
date,time,status,PA,status,PR,status,RH,status,SR,status,TA,status,DirAvg,status,SpdAvg,
2010-12-04, 00:00:05,VALID,1000.67,VALID,0,INVALID,163.655,VALID,0,VALID,24.3654,VALID,347,VALID,0.0519531,
2010-12-04, 00:01:05,VALID,1000.69,VALID,0,INVALID,163.678,VALID,0,VALID,24.3636,VALID,347,VALID,0.187891,
2010-12-04, 00:02:05,VALID,1000.66,VALID,0,INVALID,163.647,VALID,0,VALID,24.3636,VALID,347,VALID,0.144141,
2010-12-04, 00:03:05,VALID,1000.61,VALID,0,INVALID,163.655,VALID,0,VALID,24.3636,VALID,347,VALID,0.379687,
2010-12-04, 00:04:05,VALID,1000.59,VALID,0,INVALID,163.67,VALID,0,VALID,24.4043,VALID,347,VALID,0.188281,
2010-12-04, 00:05:05,VALID,1000.58,VALID,0,INVALID,163.647,VALID,0,VALID,24.383,VALID,347,VALID,0.00976563,
2010-12-04, 00:06:05,VALID,1000.59,VALID,0,INVALID,163.662,VALID,0,VALID,24.3636,VALID,347,VALID,0.397266,
2010-12-04, 00:07:05,VALID,1000.56,VALID,0,INVALID,163.662,VALID,0,VALID,24.3636,VALID,344,VALID,0.385156,
2010-12-04, 00:08:05,VALID,1000.54,VALID,0,INVALID,163.685,VALID,0,VALID,24.3441,VALID,344,VALID,0.155469,
2010-12-04, 00:09:05,VALID,1000.53,VALID,0,INVALID,163.655,VALID,0,VALID,24.3265,VALID,344,VALID,0,
2010-12-04, 00:10:05,VALID,1000.49,VALID,0,INVALID,163.662,VALID,0,VALID,24.3265,VALID,344,VALID,0,
2010-12-04, 00:11:05,VALID,1000.5,VALID,0,INVALID,163.67,VALID,0,VALID,24.2857,VALID,344,VALID,0,
2010-12-04, 00:12:05,VALID,1000.47,VALID,0,INVALID,163.685,VALID,0,VALID,24.2662,VALID,344,VALID,0.00507812,
2010-12-04, 00:13:05,VALID,1000.44,VALID,0,INVALID,163.632,VALID,0,VALID,24.2449,VALID,344,VALID,0.250781,
2010-12-04, 00:14:05,VALID,1000.42,VALID,0,INVALID,163.662,VALID,0,VALID,24.2662,VALID,344,VALID,0,
2010-12-04, 00:15:05,VALID,1000.4,VALID,0,INVALID,163.693,VALID,0,VALID,24.2681,VALID,344,VALID,0,
2010-12-04, 00:16:05,VALID,1000.38,VALID,0,INVALID,163.678,VALID,0,VALID,24.2662,VALID,344,VALID,0.00234375,
2010-12-04, 00:17:05,VALID,1000.38,VALID,0,INVALID,163.655,VALID,0,VALID,24.2662,VALID,344,VALID,0.510938,
2010-12-04, 00:18:05,VALID,1000.36,VALID,0,INVALID,163.67,VALID,0,VALID,24.2662,VALID,344,VALID,0.502344,
2010-12-04, 00:19:05,VALID,1000.35,VALID,0,INVALID,163.67,VALID,0,VALID,24.2662,VALID,8,VALID,0.638281,
2010-12-04, 00:20:05,VALID,1000.3,VALID,0,INVALID,163.678,VALID,0,VALID,24.1865,VALID,11,VALID,0.698438,
2010-12-04, 00:21:05,VALID,1000.35,VALID,0,INVALID,163.662,VALID,0,VALID,24.1476,VALID,11,VALID,0.518359,
2010-12-04, 00:22:05,VALID,1000.3,VALID,0,INVALID,163.693,VALID,0,VALID,24.1494,VALID,11,VALID,0.55,
2010-12-04, 00:23:05,VALID,1000.27,VALID,0,INVALID,163.67,VALID,0,VALID,24.13,VALID,11,VALID,0.565625,
2010-12-04, 00:24:05,VALID,1000.26,VALID,0,INVALID,163.685,VALID,0,VALID,24.1105,VALID,11,VALID,0.557813,
2010-12-04, 00:25:05,VALID,1000.29,VALID,0,INVALID,163.678,VALID,0,VALID,24.0716,VALID,11,VALID,0.378516,
2010-12-04, 00:26:05,VALID,1000.28,VALID,0,INVALID,163.693,VALID,0,VALID,24.0521,VALID,11,VALID,0.523047,
2010-12-04, 00:27:05,VALID,1000.29,VALID,0,INVALID,163.685,VALID,0,VALID,24.0929,VALID,11,VALID,0.466016,
2010-12-04, 00:28:05,VALID,1000.27,VALID,0,INVALID,163.693,VALID,0,VALID,24.0326,VALID,11,VALID,0.355469,
2010-12-04, 00:29:05,VALID,1000.26,VALID,0,INVALID,163.693,VALID,0,VALID,24.0326,VALID,11,VALID,0.469141,
2010-12-04, 00:30:05,VALID,1000.24,VALID,0,INVALID,163.693,VALID,0,VALID,24.0345,VALID,11,VALID,0.547656,
2010-12-04, 00:31:05,VALID,1000.19,VALID,0,INVALID,163.693,VALID,0,VALID,23.9937,VALID,2,VALID,0.696875,
2010-12-04, 00:32:05,VALID,1000.16,VALID,0,INVALID,163.67,VALID,0,VALID,23.9937,VALID,2,VALID,0.608594,
2010-12-04, 00:33:05,VALID,1000.14,VALID,0,INVALID,163.662,VALID,0,VALID,23.9742,VALID,2,VALID,0.591016,
2010-12-04, 00:34:05,VALID,1000.12,VALID,0,INVALID,163.693,VALID,0,VALID,23.9742,VALID,342,VALID,0.746875,
2010-12-04, 00:35:05,VALID,1000.06,VALID,0,INVALID,163.67,VALID,0,VALID,24.0521,VALID,360,VALID,0.409375,
2010-12-04, 00:36:05,VALID,1000.05,VALID,0,INVALID,163.693,VALID,0,VALID,24.0716,VALID,356,VALID,0.484375,
2010-12-04, 00:37:05,VALID,1000.01,VALID,0,INVALID,163.693,VALID,0,VALID,24.091,VALID,356,VALID,0.446094,
2010-12-04, 00:38:05,VALID,1000.01,VALID,0,INVALID,163.662,VALID,0,VALID,24.1123,VALID,338,VALID,0.216016,
2010-12-04, 00:39:05,VALID,999.967,VALID,0,INVALID,163.662,VALID,0,VALID,24.1087,VALID,338,VALID,0.298828,
2010-12-04, 00:40:05,VALID,999.973,VALID,0,INVALID,163.662,VALID,0,VALID,24.1494,VALID,315,VALID,0.317969,
2010-12-04, 00:41:05,VALID,999.964,VALID,0,INVALID,163.67,VALID,0,VALID,24.1689,VALID,303,VALID,0.460938,
2010-12-04, 00:42:05,VALID,999.954,VALID,0,INVALID,163.655,VALID,0,VALID,24.1689,VALID,334,VALID,0.408203,
2010-12-04, 00:43:05,VALID,999.98,VALID,0,INVALID,163.67,VALID,0,VALID,24.2078,VALID,334,VALID,0.195703,
2010-12-04, 00:44:05,VALID,999.938,VALID,0,INVALID,163.701,VALID,0.100563,VALID,24.2273,VALID,334,VALID,0.394922,
2010-12-04, 00:45:05,VALID,999.919,VALID,0,INVALID,163.655,VALID,0,VALID,24.2468,VALID,334,VALID,0,
2010-12-04, 00:46:05,VALID,999.927,VALID,0,INVALID,163.67,VALID,0,VALID,24.2662,VALID,334,VALID,0.273438,
2010-12-04, 00:47:05,VALID,999.883,VALID,0,INVALID,163.655,VALID,0,VALID,24.2468,VALID,334,VALID,0.402734,
2010-12-04, 00:48:05,VALID,999.875,VALID,0,INVALID,163.647,VALID,0,VALID,24.307,VALID,334,VALID,0.404687,
2010-12-04, 00:49:05,VALID,999.847,VALID,0,INVALID,163.647,VALID,0,VALID,24.2662,VALID,334,VALID,0.5125,
2010-12-04, 00:50:05,VALID,999.848,VALID,0,INVALID,163.678,VALID,0,VALID,24.2468,VALID,334,VALID,0.401563,
2010-12-04, 00:51:05,VALID,999.795,VALID,0,INVALID,163.685,VALID,0.100563,VALID,24.2255,VALID,334,VALID,0.492969,
2010-12-04, 00:52:05,VALID,999.766,VALID,0,INVALID,163.662,VALID,0,VALID,24.2273,VALID,334,VALID,0.521094,
2010-12-04, 00:53:05,VALID,999.744,VALID,0,INVALID,163.655,VALID,0,VALID,24.1884,VALID,334,VALID,0.480078,
2010-12-04, 00:54:05,VALID,999.729,VALID,0,INVALID,163.67,VALID,0,VALID,24.1884,VALID,334,VALID,0.5,
2010-12-04, 00:55:05,VALID,999.692,VALID,0,INVALID,163.678,VALID,0,VALID,24.1494,VALID,339,VALID,0.659375,
2010-12-04, 00:56:05,VALID,999.668,VALID,0,INVALID,163.678,VALID,0,VALID,24.13,VALID,340,VALID,0.636328,
2010-12-04, 00:57:05,VALID,999.633,VALID,0,INVALID,163.655,VALID,0,VALID,24.1105,VALID,341,VALID,0.577344,
2010-12-04, 00:58:05,VALID,999.631,VALID,0,INVALID,163.647,VALID,0,VALID,24.091,VALID,345,VALID,0.849609,
2010-12-04, 00:59:05,VALID,999.624,VALID,0,INVALID,163.678,VALID,0.100563,VALID,24.0929,VALID,348,VALID,0.505078,
2010-12-04, 01:00:05,VALID,999.557,VALID,0,INVALID,163.67,VALID,0,VALID,24.0521,VALID,351,VALID,0.478906,
2010-12-04, 01:01:05,VALID,999.578,VALID,0,INVALID,163.693,VALID,0,VALID,24.0716,VALID,351,VALID,0.476953,
2010-12-04, 01:02:05,VALID,999.585,VALID,0,INVALID,163.693,VALID,0,VALID,24.091,VALID,351,VALID,0.483203,
2010-12-04, 01:03:05,VALID,999.603,VALID,0,INVALID,163.685,VALID,0.100563,VALID,24.1105,VALID,351,VALID,0.278516,
2010-12-04, 01:04:05,VALID,999.59,VALID,0,INVALID,163.693,VALID,0,VALID,24.091,VALID,351,VALID,0.215234,
2010-12-04, 01:05:05,VALID,999.615,VALID,0,INVALID,163.701,VALID,0,VALID,24.091,VALID,351,VALID,0.215625,
2010-12-04, 01:06:05,VALID,999.596,VALID,0,INVALID,163.693,VALID,0,VALID,24.1105,VALID,351,VALID,0.357812,
2010-12-04, 01:07:05,VALID,999.59,VALID,0,INVALID,163.678,VALID,0,VALID,24.1105,VALID,351,VALID,0.429297,
2010-12-04, 01:08:05,VALID,999.576,VALID,0,INVALID,163.685,VALID,0,VALID,24.091,VALID,351,VALID,0.49375,
2010-12-04, 01:09:05,VALID,999.55,VALID,0,INVALID,163.662,VALID,0.100563,VALID,24.1105,VALID,2,VALID,0.516016,
2010-12-04, 01:10:05,VALID,999.583,VALID,0,INVALID,163.647,VALID,0.100563,VALID,24.091,VALID,2,VALID,0.374219,
2010-12-04, 01:11:05,VALID,999.534,VALID,0,INVALID,163.685,VALID,0,VALID,24.1105,VALID,2,VALID,0.510547,
2010-12-04, 01:12:05,VALID,999.573,VALID,0,INVALID,163.67,VALID,0,VALID,24.1105,VALID,2,VALID,0.365234,
2010-12-04, 01:13:05,VALID,999.557,VALID,0,INVALID,163.701,VALID,0,VALID,24.1105,VALID,2,VALID,0.283203,
2010-12-04, 01:14:05,VALID,999.55,VALID,0,INVALID,163.685,VALID,0.100563,VALID,24.1105,VALID,2,VALID,0.316406,
2010-12-04, 01:15:05,VALID,999.498,VALID,0,INVALID,163.685,VALID,0.100563,VALID,24.13,VALID,2,VALID,0.285547,
2010-12-04, 01:16:05,VALID,999.498,VALID,0,INVALID,163.678,VALID,0,VALID,24.13,VALID,2,VALID,0.392578,
2010-12-04, 01:17:05,VALID,999.501,VALID,0,INVALID,163.685,VALID,0.100563,VALID,24.1513,VALID,2,VALID,0.408984,
2010-12-04, 01:18:05,VALID,999.513,VALID,0,INVALID,163.685,VALID,0,VALID,24.13,VALID,2,VALID,0.399609,
2010-12-04, 01:19:05,VALID,999.496,VALID,0,INVALID,163.685,VALID,0,VALID,24.1494,VALID,2,VALID,0.531641,
2010-12-04, 01:20:05,VALID,999.523,VALID,0,INVALID,163.67,VALID,0,VALID,24.1513,VALID,2,VALID,0.441797,
2010-12-04, 01:21:05,VALID,999.53,VALID,0,INVALID,163.685,VALID,0.100563,VALID,24.1902,VALID,2,VALID,0.496484,
2010-12-04, 01:22:05,VALID,999.57,VALID,0,INVALID,163.701,VALID,0,VALID,24.1689,VALID,2,VALID,0.423047,
2010-12-04, 01:23:05,VALID,999.564,VALID,0,INVALID,163.701,VALID,0,VALID,24.1884,VALID,2,VALID,0.459766,
2010-12-04, 01:24:05,VALID,999.603,VALID,0,INVALID,163.67,VALID,0.100563,VALID,24.2078,VALID,2,VALID,0.346484,
2010-12-04, 01:25:05,VALID,999.591,VALID,0,INVALID,163.685,VALID,0,VALID,24.2273,VALID,2,VALID,0.406641,
2010-12-04, 01:26:05,VALID,999.585,VALID,0,INVALID,163.678,VALID,0.100563,VALID,24.2078,VALID,2,VALID,0.458203,
2010-12-04, 01:27:05,VALID,999.542,VALID,0,INVALID,163.662,VALID,0.100563,VALID,24.1671,VALID,2,VALID,0.455469,
2010-12-04, 01:28:05,VALID,999.543,VALID,0,INVALID,163.685,VALID,0,VALID,24.1884,VALID,2,VALID,0.392188,
2010-12-04, 01:29:05,VALID,999.56,VALID,0,INVALID,163.678,VALID,0.100563,VALID,24.1884,VALID,357,VALID,0.400781,
2010-12-04, 01:30:05,VALID,999.557,VALID,0,INVALID,163.678,VALID,0.100563,VALID,24.1689,VALID,357,VALID,0.579687,
2010-12-04, 01:31:05,VALID,999.572,VALID,0,INVALID,163.678,VALID,0.100563,VALID,24.1476,VALID,357,VALID,0.466406,
2010-12-04, 01:32:05,VALID,999.552,VALID,0,INVALID,163.685,VALID,0.100563,VALID,24.1494,VALID,353,VALID,0.583203,
2010-12-04, 01:33:05,VALID,999.534,VALID,0,INVALID,163.693,VALID,0.100563,VALID,24.1105,VALID,347,VALID,0.611719,
2010-12-04, 01:34:05,VALID,999.532,VALID,0,INVALID,163.678,VALID,0,VALID,24.1494,VALID,339,VALID,0.684766,
2010-12-04, 01:35:05,VALID,999.486,VALID,0,INVALID,163.685,VALID,0,VALID,24.2273,VALID,2,VALID,0.86875,
2010-12-04, 01:36:05,VALID,999.441,VALID,0,INVALID,163.655,VALID,0.100563,VALID,24.3052,VALID,346,VALID,0.814844,
2010-12-04, 01:37:05,VALID,999.398,VALID,0,INVALID,163.685,VALID,0,VALID,24.3441,VALID,343,VALID,0.746094,
2010-12-04, 01:38:05,VALID,999.377,VALID,0,INVALID,163.678,VALID,0,VALID,24.4025,VALID,347,VALID,0.646094,
2010-12-04, 01:39:05,VALID,999.376,VALID,0,INVALID,163.655,VALID,0,VALID,24.4414,VALID,349,VALID,0.4,
2010-12-04, 01:40:05,VALID,999.374,VALID,0,INVALID,163.647,VALID,0.100563,VALID,24.4414,VALID,345,VALID,0.898438,
2010-12-04, 01:41:05,VALID,999.337,VALID,0,INVALID,163.685,VALID,0,VALID,24.4201,VALID,351,VALID,0.779297,
2010-12-04, 01:42:05,VALID,999.376,VALID,0,INVALID,163.662,VALID,0.100563,VALID,24.4998,VALID,353,VALID,0.646875,
2010-12-04, 01:43:05,VALID,999.353,VALID,0,INVALID,163.655,VALID,0.100563,VALID,24.5388,VALID,8,VALID,0.426953,
2010-12-04, 01:44:05,VALID,999.354,VALID,0,INVALID,163.662,VALID,0.100563,VALID,24.5777,VALID,350,VALID,0.726563,
2010-12-04, 01:45:05,VALID,999.353,VALID,0,INVALID,163.67,VALID,0.100563,VALID,24.5564,VALID,353,VALID,0.532031,
2010-12-04, 01:46:05,VALID,999.329,VALID,0,INVALID,163.647,VALID,0.100563,VALID,24.6166,VALID,26,VALID,1.12656,
2010-12-04, 01:47:05,VALID,999.334,VALID,0,INVALID,163.662,VALID,0.100563,VALID,24.6361,VALID,5,VALID,0.680469,
2010-12-04, 01:48:05,VALID,999.27,VALID,0,INVALID,163.647,VALID,0.100563,VALID,24.6945,VALID,351,VALID,0.744531,
2010-12-04, 01:49:05,VALID,999.262,VALID,0,INVALID,163.632,VALID,0,VALID,24.714,VALID,21,VALID,0.789063,
2010-12-04, 01:50:05,VALID,999.265,VALID,0,INVALID,163.632,VALID,0,VALID,24.7724,VALID,359,VALID,0.717969,
2010-12-04, 01:51:05,VALID,999.242,VALID,0,INVALID,163.639,VALID,0,VALID,24.8308,VALID,351,VALID,0.945703,
2010-12-04, 01:52:05,VALID,999.261,VALID,0,INVALID,163.609,VALID,0.100563,VALID,24.9087,VALID,359,VALID,0.495703,
2010-12-04, 01:53:05,VALID,999.225,VALID,0,INVALID,163.617,VALID,0.100563,VALID,24.9476,VALID,2,VALID,1.33477,
2010-12-04, 01:54:05,VALID,999.269,VALID,0,INVALID,163.609,VALID,0.100563,VALID,24.9866,VALID,351,VALID,0.442969,
2010-12-04, 01:55:05,VALID,999.252,VALID,0,INVALID,163.617,VALID,0,VALID,24.9866,VALID,334,VALID,0.764844,
2010-12-04, 01:56:05,VALID,999.22,VALID,0,INVALID,163.624,VALID,0,VALID,25.0079,VALID,1,VALID,0.847266,
2010-12-04, 01:57:05,VALID,999.245,VALID,0,INVALID,163.639,VALID,0,VALID,24.9866,VALID,333,VALID,0.225781,
2010-12-04, 01:58:05,VALID,999.234,VALID,0,INVALID,163.594,VALID,0,VALID,25.0274,VALID,349,VALID,0.625781,
2010-12-04, 01:59:05,VALID,999.25,VALID,0,INVALID,163.617,VALID,0,VALID,25.0255,VALID,348,VALID,0.666016,
2010-12-04, 02:00:05,VALID,999.235,VALID,0,INVALID,163.639,VALID,0,VALID,25.0255,VALID,340,VALID,0.566016,
2010-12-04, 02:01:04,VALID,999.238,VALID,0,INVALID,163.632,VALID,0,VALID,25.0255,VALID,341,VALID,0.500391,
2010-12-04, 02:02:04,VALID,999.242,VALID,0,INVALID,163.632,VALID,0,VALID,25.006,VALID,341,VALID,0.084375,
2010-12-04, 02:03:04,VALID,999.219,VALID,0,INVALID,163.624,VALID,0,VALID,24.9866,VALID,341,VALID,0.298828,
2010-12-04, 02:04:04,VALID,999.191,VALID,0,INVALID,163.617,VALID,0,VALID,24.9866,VALID,341,VALID,0.430078,
2010-12-04, 02:05:04,VALID,999.166,VALID,0,INVALID,163.624,VALID,0,VALID,24.9885,VALID,341,VALID,0.351563,
2010-12-04, 02:06:04,VALID,999.15,VALID,0,INVALID,163.655,VALID,0,VALID,24.9087,VALID,341,VALID,0.514453,
2010-12-04, 02:07:04,VALID,999.133,VALID,0,INVALID,163.647,VALID,0,VALID,24.8697,VALID,343,VALID,0.608594,
2010-12-04, 02:08:04,VALID,999.106,VALID,0,INVALID,163.632,VALID,0,VALID,24.8911,VALID,343,VALID,0.551562,
2010-12-04, 02:09:04,VALID,999.101,VALID,0,INVALID,163.624,VALID,0,VALID,24.8697,VALID,344,VALID,0.699609,
2010-12-04, 02:10:04,VALID,999.074,VALID,0,INVALID,163.624,VALID,0,VALID,24.8911,VALID,341,VALID,0.408984,
2010-12-04, 02:11:04,VALID,999.079,VALID,0,INVALID,163.639,VALID,0,VALID,24.8308,VALID,341,VALID,0.4375,
2010-12-04, 02:12:04,VALID,999.046,VALID,0,INVALID,163.632,VALID,0,VALID,24.8113,VALID,342,VALID,0.540234,
2010-12-04, 02:13:04,VALID,999.048,VALID,0,INVALID,163.624,VALID,0,VALID,24.7724,VALID,339,VALID,0.488672,
2010-12-04, 02:14:04,VALID,999.018,VALID,0,INVALID,163.655,VALID,0,VALID,24.7335,VALID,339,VALID,0.528906,
2010-12-04, 02:15:04,VALID,998.994,VALID,0,INVALID,163.685,VALID,0,VALID,24.6945,VALID,339,VALID,0.419531,
2010-12-04, 02:16:04,VALID,998.996,VALID,0,INVALID,163.655,VALID,0,VALID,24.6361,VALID,339,VALID,0.587891,
2010-12-04, 02:17:04,VALID,998.998,VALID,0,INVALID,163.662,VALID,0,VALID,24.5972,VALID,339,VALID,0.532422,
2010-12-04, 02:18:04,VALID,998.965,VALID,0,INVALID,163.67,VALID,0,VALID,24.5582,VALID,339,VALID,0.470703,
2010-12-04, 02:19:04,VALID,998.972,VALID,0,INVALID,163.662,VALID,0,VALID,24.5406,VALID,339,VALID,0.571094,
2010-12-04, 02:20:04,VALID,998.929,VALID,0,INVALID,163.678,VALID,0,VALID,24.4804,VALID,339,VALID,0.575,
2010-12-04, 02:21:04,VALID,998.935,VALID,0,INVALID,163.655,VALID,0,VALID,24.4433,VALID,339,VALID,0.505859,
2010-12-04, 02:22:04,VALID,998.947,VALID,0,INVALID,163.693,VALID,0,VALID,24.4025,VALID,339,VALID,0.591016,
2010-12-04, 02:23:04,VALID,998.946,VALID,0,INVALID,163.662,VALID,0,VALID,24.3849,VALID,339,VALID,0.466016,
2010-12-04, 02:24:04,VALID,998.898,VALID,0,INVALID,163.655,VALID,0,VALID,24.3654,VALID,339,VALID,0.464453,
2010-12-04, 02:25:04,VALID,998.929,VALID,0,INVALID,163.67,VALID,0,VALID,24.3459,VALID,339,VALID,0.386719,
2010-12-04, 02:26:04,VALID,998.949,VALID,0,INVALID,163.678,VALID,0,VALID,24.3459,VALID,339,VALID,0.488672,
2010-12-04, 02:27:04,VALID,998.927,VALID,0,INVALID,163.662,VALID,0,VALID,24.3654,VALID,339,VALID,0.457422,
2010-12-04, 02:28:04,VALID,998.948,VALID,0,INVALID,163.693,VALID,0,VALID,24.3265,VALID,339,VALID,0.472656,
2010-12-04, 02:29:04,VALID,998.945,VALID,0,INVALID,163.678,VALID,0,VALID,24.3052,VALID,339,VALID,0.224609,
2010-12-04, 02:30:04,VALID,998.968,VALID,0,INVALID,163.647,VALID,0,VALID,24.3459,VALID,339,VALID,0.386719,
2010-12-04, 02:31:04,VALID,998.949,VALID,0,INVALID,163.67,VALID,0,VALID,24.3849,VALID,339,VALID,0.282813,
2010-12-04, 02:32:04,VALID,998.94,VALID,0,INVALID,163.662,VALID,0,VALID,24.3636,VALID,339,VALID,0.334766,
2010-12-04, 02:33:04,VALID,998.959,VALID,0,INVALID,163.662,VALID,0,VALID,24.3849,VALID,339,VALID,0.347656,
2010-12-04, 02:34:04,VALID,998.956,VALID,0,INVALID,163.655,VALID,0,VALID,24.4043,VALID,340,VALID,0.484766,
2010-12-04, 02:35:04,VALID,998.93,VALID,0,INVALID,163.662,VALID,0,VALID,24.3422,VALID,341,VALID,0.480078,
2010-12-04, 02:36:04,VALID,998.953,VALID,0,INVALID,163.662,VALID,0,VALID,24.3849,VALID,351,VALID,0.526563,
2010-12-04, 02:37:04,VALID,998.926,VALID,0,INVALID,163.647,VALID,0,VALID,24.3636,VALID,351,VALID,0.510156,
2010-12-04, 02:38:04,VALID,998.903,VALID,0,INVALID,163.678,VALID,0,VALID,24.4043,VALID,3,VALID,0.348047,
2010-12-04, 02:39:04,VALID,998.89,VALID,0,INVALID,163.639,VALID,0,VALID,24.4025,VALID,355,VALID,0.605078,
2010-12-04, 02:40:04,VALID,998.891,VALID,0,INVALID,163.655,VALID,0,VALID,24.4414,VALID,353,VALID,0.316016,
2010-12-04, 02:41:04,VALID,998.88,VALID,0,INVALID,163.655,VALID,0,VALID,24.4414,VALID,353,VALID,0.336328,
2010-12-04, 02:42:04,VALID,998.876,VALID,0,INVALID,163.678,VALID,0,VALID,24.4804,VALID,353,VALID,0.392969,
2010-12-04, 02:43:04,VALID,998.876,VALID,0,INVALID,163.655,VALID,0,VALID,24.5406,VALID,353,VALID,0.383984,
2010-12-04, 02:44:04,VALID,998.854,VALID,0,INVALID,163.639,VALID,0,VALID,24.5193,VALID,353,VALID,0.0558594,
2010-12-04, 02:45:04,VALID,998.827,VALID,0,INVALID,163.647,VALID,0,VALID,24.5193,VALID,353,VALID,0.00351562,
2010-12-04, 02:46:04,VALID,998.836,VALID,0,INVALID,163.67,VALID,0,VALID,24.5582,VALID,347,VALID,0.178906,
2010-12-04, 02:47:04,VALID,998.791,VALID,0,INVALID,163.678,VALID,0,VALID,24.5777,VALID,347,VALID,0.04375,
2010-12-04, 02:48:04,VALID,998.833,VALID,0,INVALID,163.617,VALID,0,VALID,24.5582,VALID,347,VALID,0.483203,
2010-12-04, 02:49:04,VALID,998.822,VALID,0,INVALID,163.662,VALID,0,VALID,24.5193,VALID,349,VALID,0.409375,
2010-12-04, 02:50:04,VALID,998.82,VALID,0,INVALID,163.639,VALID,0,VALID,24.5193,VALID,349,VALID,0.65625,
2010-12-04, 02:51:04,VALID,998.842,VALID,0,INVALID,163.655,VALID,0,VALID,24.4804,VALID,349,VALID,0.507031,
2010-12-04, 02:52:04,VALID,998.827,VALID,0,INVALID,163.647,VALID,0,VALID,24.4609,VALID,349,VALID,0.373437,
2010-12-04, 02:53:04,VALID,998.843,VALID,0,INVALID,163.639,VALID,0,VALID,24.4628,VALID,349,VALID,0.45625,
2010-12-04, 02:54:04,VALID,998.824,VALID,0,INVALID,163.678,VALID,0,VALID,24.4414,VALID,349,VALID,0.45,
2010-12-04, 02:55:04,VALID,998.81,VALID,0,INVALID,163.678,VALID,0,VALID,24.4201,VALID,349,VALID,0.372266,
2010-12-04, 02:56:04,VALID,998.787,VALID,0,INVALID,163.662,VALID,0,VALID,24.4609,VALID,349,VALID,0.585156,
2010-12-04, 02:57:04,VALID,998.759,VALID,0,INVALID,163.662,VALID,0,VALID,24.4628,VALID,349,VALID,0.618359,
2010-12-04, 02:58:04,VALID,998.759,VALID,0,INVALID,163.67,VALID,0,VALID,24.422,VALID,349,VALID,0.602734,
2010-12-04, 02:59:04,VALID,998.755,VALID,0,INVALID,163.662,VALID,0,VALID,24.422,VALID,338,VALID,0.635547,
2010-12-04, 03:00:04,VALID,998.737,VALID,0,INVALID,163.639,VALID,0,VALID,24.4609,VALID,341,VALID,0.525391,
2010-12-04, 03:01:04,VALID,998.693,VALID,0,INVALID,163.685,VALID,0,VALID,24.5017,VALID,341,VALID,0.69375,
2010-12-04, 03:02:04,VALID,998.713,VALID,0,INVALID,163.647,VALID,0,VALID,24.498,VALID,340,VALID,0.4125,
2010-12-04, 03:03:04,VALID,998.653,VALID,0,INVALID,163.639,VALID,0,VALID,24.5193,VALID,355,VALID,0.323438,
2010-12-04, 03:04:04,VALID,998.691,VALID,0,INVALID,163.647,VALID,0,VALID,24.5796,VALID,354,VALID,0.351563,
2010-12-04, 03:05:04,VALID,998.692,VALID,0,INVALID,163.632,VALID,0,VALID,24.5777,VALID,354,VALID,0.692578,
2010-12-04, 03:06:04,VALID,998.703,VALID,0,INVALID,163.67,VALID,0,VALID,24.6166,VALID,332,VALID,0.585938,
2010-12-04, 03:07:04,VALID,998.713,VALID,0,INVALID,163.647,VALID,0,VALID,24.675,VALID,338,VALID,0.414063,
2010-12-04, 03:08:04,VALID,998.702,VALID,0,INVALID,163.655,VALID,0,VALID,24.714,VALID,352,VALID,0.540234,
2010-12-04, 03:09:04,VALID,998.692,VALID,0,INVALID,163.655,VALID,0,VALID,24.7335,VALID,355,VALID,0.487891,
2010-12-04, 03:10:04,VALID,998.715,VALID,0,INVALID,163.639,VALID,0,VALID,24.7335,VALID,355,VALID,0.207422,
2010-12-04, 03:11:04,VALID,998.705,VALID,0,INVALID,163.639,VALID,0,VALID,24.7548,VALID,7,VALID,0.632031,
2010-12-04, 03:12:04,VALID,998.723,VALID,0,INVALID,163.647,VALID,0,VALID,24.714,VALID,11,VALID,0.462891,
2010-12-04, 03:13:04,VALID,998.721,VALID,0,INVALID,163.632,VALID,0,VALID,24.7743,VALID,358,VALID,0.634766,
2010-12-04, 03:14:04,VALID,998.717,VALID,0,INVALID,163.617,VALID,0,VALID,24.7937,VALID,329,VALID,0.876172,
2010-12-04, 03:15:04,VALID,998.761,VALID,0,INVALID,163.632,VALID,0,VALID,24.8522,VALID,329,VALID,0.142969,
2010-12-04, 03:16:04,VALID,998.797,VALID,0,INVALID,163.624,VALID,0,VALID,24.8308,VALID,336,VALID,0.249609,
2010-12-04, 03:17:04,VALID,998.784,VALID,0,INVALID,163.617,VALID,0,VALID,24.8716,VALID,328,VALID,0,
2010-12-04, 03:18:04,VALID,998.819,VALID,0,INVALID,163.647,VALID,0,VALID,24.8503,VALID,330,VALID,0.262891,
2010-12-04, 03:19:04,VALID,998.792,VALID,0,INVALID,163.617,VALID,0,VALID,24.8892,VALID,346,VALID,0.807422,
2010-12-04, 03:20:04,VALID,998.84,VALID,0,INVALID,163.624,VALID,0,VALID,24.93,VALID,338,VALID,0.534766,
2010-12-04, 03:21:04,VALID,998.827,VALID,0,INVALID,163.609,VALID,0,VALID,24.9495,VALID,337,VALID,0.531641,
2010-12-04, 03:22:04,VALID,998.83,VALID,0,INVALID,163.601,VALID,0,VALID,24.9282,VALID,342,VALID,0.515625,
2010-12-04, 03:23:04,VALID,998.842,VALID,0,INVALID,163.617,VALID,0,VALID,24.9476,VALID,344,VALID,0.327344,
2010-12-04, 03:24:04,VALID,998.82,VALID,0,INVALID,163.624,VALID,0,VALID,24.9087,VALID,300,VALID,0.244141,
2010-12-04, 03:25:04,VALID,998.845,VALID,0,INVALID,163.647,VALID,0,VALID,24.8892,VALID,347,VALID,0.618359,
2010-12-04, 03:26:04,VALID,998.837,VALID,0,INVALID,163.639,VALID,0,VALID,24.8716,VALID,347,VALID,0.467969,
2010-12-04, 03:27:04,VALID,998.869,VALID,0,INVALID,163.632,VALID,0,VALID,24.8308,VALID,347,VALID,0.570703,
2010-12-04, 03:28:04,VALID,998.873,VALID,0,INVALID,163.632,VALID,0,VALID,24.7919,VALID,347,VALID,0.469141,
2010-12-04, 03:29:04,VALID,998.878,VALID,0,INVALID,163.647,VALID,0,VALID,24.7529,VALID,348,VALID,0.479688,
2010-12-04, 03:30:04,VALID,998.851,VALID,0,INVALID,163.647,VALID,0,VALID,24.714,VALID,349,VALID,0.544531,
2010-12-04, 03:31:04,VALID,998.891,VALID,0,INVALID,163.632,VALID,0,VALID,24.7159,VALID,349,VALID,0.386719,
2010-12-04, 03:32:04,VALID,998.883,VALID,0,INVALID,163.639,VALID,0,VALID,24.6945,VALID,349,VALID,0.538672,
2010-12-04, 03:33:04,VALID,998.858,VALID,0,INVALID,163.632,VALID,0,VALID,24.6361,VALID,349,VALID,0.432422,
2010-12-04, 03:34:04,VALID,998.883,VALID,0,INVALID,163.624,VALID,0,VALID,24.6166,VALID,349,VALID,0.495313,
2010-12-04, 03:35:04,VALID,998.847,VALID,0,INVALID,163.647,VALID,0,VALID,24.5972,VALID,348,VALID,0.426562,
2010-12-04, 03:36:04,VALID,998.857,VALID,0,INVALID,163.639,VALID,0,VALID,24.5777,VALID,348,VALID,0.310156,
2010-12-04, 03:37:04,VALID,998.867,VALID,0,INVALID,163.655,VALID,0,VALID,24.5369,VALID,348,VALID,0.308984,
2010-12-04, 03:38:04,VALID,998.877,VALID,0,INVALID,163.662,VALID,0,VALID,24.5388,VALID,348,VALID,0.342578,
2010-12-04, 03:39:04,VALID,998.861,VALID,0,INVALID,163.639,VALID,0,VALID,24.5193,VALID,348,VALID,0.423828,